Location: LDNL
(36.4545°S, 141.6685°E)
Time: 17:01:35
(UTC+10:00)

Courier 1B Rocket - Pass Details

Date: 12 August 2022
Orbit: 920 x 1202 km, 28.2° (Epoch: 25 September)

Event Time Altitude Azimuth Distance (km) Brightness Sun altitude
Exits shadow 03:19:21 14° 62° (ENE) 2,820 7.6 -48.4°
Drops below altitude 10° 03:20:44 10° 70° (ENE) 3,110 8.0 -48.2°
Sets 03:24:19 0° 85° (E) 4,045 8.8 -47.5°
